Location: Bannatyne
(13.0833°N, 59.5333°W)
Time: 18:45:55
(UTC+00:00)

Transit 2A - Pass Details

Date: 31 January 2020
Orbit: 600 x 959 km, 66.7° (Epoch: 19 February)

Event Time Altitude Azimuth Distance (km) Brightness Sun altitude
Rises 08:17:58 0° 342° (NNW) 3,192 - -30.6°
Reaches altitude 10° 08:20:15 10° 345° (NNW) 2,321 - -30.1°
Exits shadow 08:25:18 71° 41° (NE) 876 6.2 -28.9°
Maximum altitude 08:25:37 73° 70° (ENE) 870 6.2 -28.8°
Drops below altitude 10° 08:31:32 10° 154° (SSE) 2,555 9.1 -27.4°
Sets 08:34:08 0° 156° (SSE) 3,537 9.9 -26.8°
